sat.trackr.live / text

‹ back to catalog

QIANKUN-1

NORAD 57422 · 2023-103B

PAYLOAD ACTIVE UNKNOWN

§ Identity

Operator
Country
PRC
Launch date
2023-07-22
Launch site
JSC
Launch vehicle
Mass (kg)
RCS (m²)

External: N2YO · Heavens-Above · Gunter

§ Orbital elements

Epoch: 2026-09-18T08:43:23.052000Z

Period
89.77 min
Inclination
96.1200°
Eccentricity
0.0006862
Mean motion
16.04074311 rev/d
Perigee alt
258.6 km
Apogee alt
267.7 km
Semi-major
6,641.3 km
B*
-2.7414e-6
RAAN
299.3206°
Arg perigee
280.5458°
Mean anomaly
79.5053°
Rev number
18,225

§ Raw data

QIANKUN-11 57422U 23103B   26261.36346125 -.00002283  16377-5 -27414-5 0  99952 57422  96.1200 299.3206 0006862 280.5458  79.5053 16.04074311182259

JSON: /api/v1/satellites/57422 · /tle

For live sub-satellite position, see the globe view (requires WebGL).

§ Visibility from observer

Set your observer location to see the next 7 days of passes ≥ 10°. The values pass through the URL so the page stays shareable.

No JS? Fill the form by hand. The geolocation button needs JavaScript.

§ Radio — SatNOGS DB

ModeDescriptionDownlinkUplink
FM Mode U STRF 401.549 MHz

1 transmitter · refreshed weekly from db.satnogs.org